Tracking 30922 objects as of 2-Jul-2025
HD Live streaming from Space Station
objects crossing your sky now

STARLINK-2432

Track STARLINK-2432 now!
10-day predictions
STARLINK-2432 is classified as:


NORAD ID: 47840
Int'l Code: 2021-018BF
Perigee: 553.5 km
Apogee: 555.1 km
Inclination: 53.1 °
Period: 95.6 minutes
Semi major axis: 6925 km
RCS: Unknown
Launch date: March 11, 2021
Source: United States (US)
Launch site: AIR FORCE EASTERN TEST RANGE (AFETR)
Your satellite tracking list
Your tracking list is empty




NASA's NSSDC Master Catalog

Two Line Element Set (TLE):
1 47840U 21018BF  25182.62013381  .00002844  00000-0  20964-3 0  9999
2 47840  53.0559 278.7133 0001154  81.5776 278.5344 15.06413396239036
Source of the keplerian elements: AFSPC